Content
SEND FEEDBACK

Daily
Averages
Monthly
Summary
Switzerland

PAYERNE, SWITZERLAND


Home > Europe > Switzerland
Elevation: 1463 feet     Latitude: 46 50N     Longitude: 006 55E

WEATHER
 
SELECT A DAY
Number of Records: 86,580;   Date Range: 12/15/98 - 7/22/14
 
SHARE

PRINT THIS DATA

[ ← Previous Day ]
WEATHER ALMANAC - FEBRUARY 17, 2013
[ Next Day → ]
[ °C ]   °F
Weather ElementAverageHighLow
Temperature25.3 °F33.8 °F (12:50 pm)12.2 °F (4:20 am)
Dewpoint20.7 °F24.8 °F (9:20 am)10.4 °F (4:20 am)
Humidity83.3 %93 % (12:50 am)65 % (12:50 pm)
Barometer30.01 in30.06 in (12:50 am)29.95 in (11:50 pm)
Wind Speed4.3 mph9.2 mph (10:20 pm)
Weather ElementAverage
Visibility6 mi
Wind DirectionNE (49.5 °)

Weather ElementTotal
Precipitation---
Heating Degree Days42 (Base 65)
Averaged from 44 records on February 17, 2013
WEATHER CONDITIONS BREAKOUT
WIND DIRECTION BREAKOUT
WEATHER BY HOUR - FEBRUARY 17, 2013
[ °C ]   °F
Local TimeTemperatureDewpointHumidityBarometerVisibilityWind DirectionWind SpeedGust SpeedPrecipitationEventsConditions
12:50 AM23.0 °F21.2 °F93 %30.06 inNNE (30°)4.6 mphClear
1:20 AM24.8 °F21.2 °F86 %30.06 inNorth (10°)5.8 mphClear
1:50 AM23.0 °F21.2 °F93 %30.06 inNorth (360°)4.6 mphClear
2:20 AM17.6 °F15.8 °F93 %30.06 inVariable1.2 mphClear
2:50 AM21.2 °F19.4 °F93 %30.06 inVariable2.3 mphClear
3:20 AM15.8 °F14.0 °F93 %30.04 in3.7 miVariable2.3 mph
3:50 AM17.6 °F15.8 °F93 %30.04 inVariable1.2 mphClear
4:20 AM12.2 °F10.4 °F92 %30.04 inVariable2.3 mphClear
4:50 AM15.8 °F14.0 °F93 %30.04 inVariable2.3 mphClear
5:20 AM17.6 °F15.8 °F93 %30.04 in4.3 miVariable1.2 mph
5:50 AM15.8 °F14.0 °F93 %30.04 inCalmClear
6:20 AM15.8 °F14.0 °F93 %30.04 inVariable1.2 mphMostly Cloudy
6:50 AM19.4 °F17.6 °F93 %30.04 in6.2 miVariable1.2 mphMostly Cloudy
7:20 AM15.8 °F14.0 °F93 %30.04 in6.2 miVariable1.2 mphOvercast
7:50 AM23.0 °F21.2 °F93 %30.04 in6.2 miVariable3.5 mphMostly Cloudy
8:50 AM24.8 °F23.0 °F93 %30.04 in6.2 miNE (40°)3.5 mphScattered Clouds
9:20 AM26.6 °F24.8 °F93 %30.04 in6.2 miENE (60°)3.5 mphScattered Clouds
10:50 AM28.4 °F23.0 °F80 %30.04 inVariable2.3 mphClear
11:20 AM30.2 °F23.0 °F75 %30.04 in6.2 miEast (90°)3.5 mphPartly Cloudy
11:50 AM30.2 °F23.0 °F75 %30.04 in6.2 miVariable2.3 mphPartly Cloudy
12:20 PM32.0 °F23.0 °F69 %30.01 in6.2 miENE (70°)5.8 mphPartly Cloudy
12:50 PM33.8 °F23.0 °F65 %30.01 in6.2 miNE (50°)8.1 mphPartly Cloudy
1:20 PM33.8 °F23.0 °F65 %30.01 in6.2 miENE (60°)6.9 mphPartly Cloudy
1:50 PM32.0 °F24.8 °F75 %30.01 inVariable3.5 mphClear
2:20 PM33.8 °F24.8 °F70 %29.98 inVariable2.3 mphClear
2:50 PM33.8 °F23.0 °F65 %29.98 in6.2 miNE (50°)5.8 mphPartly Cloudy
3:20 PM32.0 °F23.0 °F69 %29.98 inENE (70°)5.8 mphClear
3:50 PM32.0 °F24.8 °F75 %29.98 inESE (120°)5.8 mphClear
4:20 PM30.2 °F24.8 °F80 %29.98 in6.2 miSE (140°)6.9 mphPartly Cloudy
4:50 PM30.2 °F24.8 °F80 %29.98 in6.2 miESE (120°)4.6 mphScattered Clouds
5:20 PM28.4 °F23.0 °F80 %29.98 in6.2 miEast (100°)4.6 mphMostly Cloudy
5:50 PM28.4 °F23.0 °F80 %29.98 in6.2 miEast (100°)5.8 mphMostly Cloudy
6:20 PM26.6 °F23.0 °F86 %29.98 in6.2 miVariable3.5 mphOvercast
6:50 PM26.6 °F23.0 °F86 %29.98 in6.2 miEast (90°)5.8 mphOvercast
7:20 PM26.6 °F23.0 °F86 %29.98 in6.2 miEast (80°)6.9 mphOvercast
7:50 PM26.6 °F23.0 °F86 %29.98 in6.2 miENE (70°)6.9 mphOvercast
8:20 PM26.6 °F21.2 °F80 %29.98 in6.2 miENE (70°)5.8 mphMostly Cloudy
8:50 PM26.6 °F21.2 °F80 %29.98 in6.2 miENE (70°)5.8 mphMostly Cloudy
9:20 PM24.8 °F21.2 °F86 %29.98 in6.2 miENE (70°)4.6 mphScattered Clouds
9:50 PM26.6 °F21.2 °F80 %29.98 in6.2 miNE (50°)8.1 mphScattered Clouds
10:20 PM26.6 °F21.2 °F80 %29.98 in6.2 miNE (50°)9.2 mphMostly Cloudy
10:50 PM26.6 °F21.2 °F80 %29.98 in6.2 miNE (40°)5.8 mphOvercast
11:20 PM26.6 °F21.2 °F80 %29.98 in6.2 miNE (50°)8.1 mphMostly Cloudy
11:50 PM24.8 °F19.4 °F80 %29.95 in6.2 miENE (70°)4.6 mphMostly Cloudy
Hourly data recorded from LSGC, located miles away from Payerne, Switzerland







STORIES FROM OUR PARTNERS